CDT,Max TemperatureF,Mean TemperatureF,Min TemperatureF,Max Dew PointF,MeanDew PointF,Min DewpointF,Max Humidity, Mean Humidity, Min Humidity, Max Sea Level PressureIn, Mean Sea Level PressureIn, Min Sea Level PressureIn, Max VisibilityMiles, Mean VisibilityMiles, Min VisibilityMiles, Max Wind SpeedMPH, Mean Wind SpeedMPH, Max Gust SpeedMPH,PrecipitationIn, CloudCover, Events, WindDirDegrees
2013-8-1,86,77,68,72,68,66,100,79,51,30.05,30.01,29.97,10,7,0,13,2,17,0.00,3,Fog,349
2013-8-2,86,74,62,72,64,57,100,72,37,30.05,30.01,29.98,10,7,0,7,1,,0.00,1,Fog,130
2013-8-3,82,75,68,73,70,66,94,83,70,30.07,30.02,29.97,10,9,0,9,4,,0.00,1,Fog-Rain-Thunderstorm,198
2013-8-4,89,78,68,73,69,66,100,77,49,30.11,30.07,30.04,10,6,0,10,3,,0.00,4,Fog,14
2013-8-5,80,74,69,73,68,64,94,81,65,30.08,30.02,29.95,10,10,3,7,2,,0.04,3,Rain-Thunderstorm,124
2013-8-6,84,78,71,75,72,70,94,87,66,29.99,29.95,29.91,10,8,2,9,4,,0.00,4,Rain-Thunderstorm,152
2013-8-7,89,80,71,77,73,70,94,79,59,29.97,29.94,29.89,10,10,7,10,5,,0.00,3,Thunderstorm,166
2013-8-8,95,85,75,75,73,68,94,74,44,29.98,29.94,29.90,10,10,6,13,6,17,0.02,1,Thunderstorm,184
2013-8-9,91,82,73,75,73,68,94,81,55,30.06,29.99,29.96,10,8,3,17,4,25,0.00,2,Rain-Thunderstorm,170
2013-8-10,89,80,71,75,71,68,94,78,55,30.13,30.07,30.03,10,9,3,12,4,16,0.00,2,Rain-Thunderstorm,140
2013-8-11,86,80,73,77,73,72,94,87,66,30.14,30.10,30.07,10,7,0,13,3,21,1.61,4,Fog-Rain-Thunderstorm,168
2013-8-12,89,80,71,75,71,68,94,80,55,30.11,30.04,29.95,10,8,1,15,4,24,0.38,2,Rain-Thunderstorm,204
2013-8-13,86,78,69,72,69,68,94,80,55,30.02,29.97,29.92,10,10,4,10,3,,0.00,3,,316
2013-8-14,78,70,62,68,60,55,88,69,47,30.08,30.03,29.97,10,10,10,13,7,20,0.00,0,,22
2013-8-15,82,68,55,64,58,54,94,73,44,30.08,30.04,29.99,10,10,8,7,3,,0.00,0,,349
2013-8-16,80,71,62,66,64,61,94,80,58,30.09,30.04,30.01,10,9,2,10,3,,0.00,5,,106
2013-8-17,80,73,66,64,64,63,94,80,58,30.10,30.07,30.03,10,9,5,13,5,,0.00,5,,95
2013-8-18,82,73,64,68,64,63,94,79,51,30.15,30.10,30.06,10,9,4,8,3,,0.00,5,,132
2013-8-19,84,74,64,68,66,63,100,80,55,30.12,30.07,30.02,10,9,0,10,2,,0.00,5,Fog,89
2013-8-20,77,72,66,72,67,64,94,91,78,30.11,30.07,30.04,10,5,0,6,0,,0.00,6,Fog,148
2013-8-21,,,,,,,,,,,,,,,,,,,,,,
2013-8-22,91,81,71,72,70,68,94,74,46,30.08,30.05,30.02,10,10,8,16,4,22,0.05,4,Rain-Thunderstorm,87
2013-8-23,91,80,68,73,70,66,100,78,43,30.10,30.05,30.00,10,7,0,8,2,,0.00,1,Fog,58
2013-8-24,89,78,68,72,70,66,100,77,49,30.17,30.12,30.05,10,7,0,12,2,,0.00,0,Fog,75
2013-8-25,86,78,71,72,69,68,94,75,55,30.30,30.24,30.18,10,8,2,10,4,,0.00,3,,132
2013-8-26,86,75,64,68,64,57,100,72,37,30.30,30.23,30.15,10,8,0,7,2,,0.00,0,Fog-Rain,136
2013-8-27,87,74,62,68,62,57,100,70,37,30.18,30.13,30.06,10,8,1,6,1,,0.00,0,Rain,116
2013-8-28,91,78,64,72,66,63,100,73,40,30.11,30.07,30.02,10,8,0,7,1,,0.00,1,Fog,281
2013-8-29,93,80,66,73,68,64,94,72,41,30.09,30.03,29.98,10,8,2,9,1,,0.00,1,,335
2013-8-30,93,80,68,73,69,66,100,72,41,30.03,29.97,29.91,10,8,2,7,1,,0.00,1,Rain,40
2013-8-31,93,80,68,77,70,66,94,73,41,29.96,29.90,29.84,10,8,3,10,3,,0.00,1,Rain-Thunderstorm,208